Weather at Lamia Air Base [CLOSED]

Public forecast

Using degrees Celsius for public forecast. Weather courtesy of forecast.io.

Closest aviation weather report (METAR) to Lamia Air Base

Closest report is Nea Anchialos National Airport, 26.6 nm (49.3 km) NE. Retrieved 2022/01/24 09:50 UTC (24 minutes ago):

LGBL 240950Z 29006KT 0500 SN FEW010 BKN025 OVC070 M01/M02 Q1026 RED

Closest aviation forecast (TAF) to Lamia Air Base

Forecast is more than 12 hours old.

Closest forecast is Skiathos Island National Airport, 53.1 nm (98.3 km) ENE. Retrieved 2012/09/27 00:18 UTC (9 years ago):

TAF LGSK 272300Z 2800/2909 01010KT 9999 FEW020